铱星星座 143星 (IRIDIUM 143)

导读

IRIDIUM 143是美国铱星系统下的通信卫星,于2018年3月30日发射入轨。铱星系统旨在提供全球卫星通信服务,覆盖极地、海洋等地面网络盲区,支持语音、数据传输等业务,该卫星接替老旧卫星,保障系统服务稳定性,延续了铱星网络的全球通信覆盖能力。

Basic Information
目录编号:
43258
目录名称:
IRIDIUM 143
国际标识:
2018-030K
轨道中心:
EARTH
卫星名称:
铱星星座 143星
卫星全名:
铱星星座 143星 (IRIDIUM 143)
卫星状态:
在轨 (已飞行3087 天)
发射日期:
2018-03-30 UTC
国别 :
美国 (US)
星等 :
--
Orbit Information
数据来源 国际轨道数据 AOE轨道数据
星历时间 2026-09-11T06:39:55+0800
6小时前
查看轨道信息
2026-09-10T08:00:00+0800
1天前
查看轨道信息
半长轴 7155.805km 7155.803km
偏心率 0.0002252 0.0002201
轨道倾角 86.391° 86.391°
近地点辐角 87.244° 89.266°
升交点赤经 254.691° 255.086°
平近点角 272.901° 77.921°
近地点 776.056km 776.091km
远地点 779.28km 779.241km
周期 100.403分钟 100.403分钟
每日圈数 14.342175 14.342182
Detailed Information
平衡模式:
三轴稳定
覆盖范围:
全球
运营商:
铱星通信公司
运营商所在国:
美国
制造商(研发单位):
阿莱尼亚宇航公司
制造商所在国:
意大利
使用方式:
暂无
Satellite Introduction
铱星(Iridium)是由共66个运作中的通信卫星组成的卫星通信系统。这个系统原本规划77个通信卫星,所以用原子序数为77的铱元素来命名。铱卫星允许人们使用手持型电子设备进行全球性的语音及数据通讯。该卫星仍在工作。
2D Orbit Map
3D Orbit Map
Orbit Altitude Analysis Chart
Orbit Inclination Analysis Chart
Orbit Comprehensive Analysis Chart
View Comprehensive Chart
Miss Distance Evolution Trend with All Objects
Collision Probability Evolution Trend with All Objects